Location: Washington
(38.8950°N, 77.0370°W)
Time: 21:06:55
(UTC-04:00)

Amateur Radio Satellites - All Passes

Search period start: 28 March 2015 20:36
Search period end: 29 March 2015 20:36
Location: Washington, 38.8950°N, 77.0370°W

Satellite Date Start Highest point End Downlink Frequencies (MHz)
Time Altitude Azimuth
PRISM 28 Mar 20:37:30 20:41:05 27° 290° (WNW) 20:44:34 437.425
BEESAT 2 28 Mar 20:37:45 20:41:45 48° 243° (WSW) 20:45:38 435.950
AAUSAT CUBESAT 2 28 Mar 20:52:06 20:55:41 29° 71° (ENE) 20:59:22 437.432
SEEDS 28 Mar 20:54:16 20:58:15 44° 74° (ENE) 21:02:18 437.485
CUBESAT XI-V 28 Mar 21:02:52 21:05:33 15° 294° (WNW) 21:08:02 437.345
CINEMA 3 28 Mar 21:07:00 21:10:38 29° 71° (ENE) 21:14:16 145.822/145.860
Oscar 11 28 Mar 21:11:02 21:14:26 24° 69° (ENE) 21:17:55 145.826/435.025
CUSAT 1 28 Mar 21:13:26 21:16:09 32° 98° (E) 21:18:37 437.405
BEESAT 3 28 Mar 21:17:12 21:19:41 15° 249° (WSW) 21:22:00 437.485
COMPASS 1 28 Mar 21:17:53 21:22:01 70° 76° (ENE) 21:26:13 437.405
DOVE 4 28 Mar 21:20:20 21:24:44 87° 81° (E) 21:28:59 437.250
FUNcube-1 28 Mar 21:21:08 21:23:20 15° 67° (ENE) 21:25:42 145.935
UWE-3 28 Mar 21:22:22 21:25:14 19° 69° (ENE) 21:28:14 435.000/436.395/437.385
CUBEBUG 2 28 Mar 21:25:03 21:28:23 24° 70° (ENE) 21:31:48 437.445
HO-68 28 Mar 21:26:56 21:34:03 66° 257° (WSW) 21:41:12 435.675
GOMX 1 28 Mar 21:27:28 21:31:56 51° 261° (W) 21:36:09 467.674
STRAND 1 28 Mar 21:28:08 21:31:47 20° 295° (WNW) 21:35:17 437.568
ZACube-1 28 Mar 21:32:49 21:35:47 20° 69° (ENE) 21:38:53 437.345
AIST 2 28 Mar 21:44:53 21:48:32 27° 247° (WSW) 21:52:03 435.215
CANX-2 28 Mar 21:45:36 21:49:27 33° 264° (W) 21:53:19 2200.000
50 SAT 28 Mar 21:53:59 21:54:12 10° 65° (ENE) 21:54:39 437.505
DANDE 28 Mar 21:57:11 22:00:27 63° 279° (W) 22:03:11 436.750
CUTE 1.7 + AOD 2 28 Mar 22:00:02 22:03:36 26° 265° (W) 22:07:09 437.475
DELFI C3 28 Mar 22:11:39 22:15:43 89° 80° (E) 22:19:50 145.870
UKube-1 28 Mar 22:16:18 22:20:28 49° 73° (ENE) 22:24:41 .
GONETS M04 28 Mar 22:18:14 22:24:06 18° 298° (WNW) 22:29:32
BRITE-PL 28 Mar 22:18:20 22:19:37 11° 270° (W) 22:20:33 437.365/2234.400
ISS 28 Mar 22:24:06 22:26:07 16° 131° (SE) 22:28:14 145.825
DX 1 28 Mar 22:25:13 22:29:33 67° 75° (ENE) 22:33:53 434.975-435.025
AAUSAT CUBESAT 2 28 Mar 22:28:10 22:31:22 21° 267° (W) 22:34:30 437.432
HUMSAT D 28 Mar 22:29:26 22:33:18 43° 74° (ENE) 22:37:14 437.325/437.525
SEEDS 28 Mar 22:32:04 22:34:22 14° 270° (W) 22:36:29 437.485
RS-15 28 Mar 22:34:00 22:43:00 27° 330° (NNW) 22:51:59 29.354- 29.394
CINEMA 3 28 Mar 22:44:42 22:47:55 20° 266° (W) 22:51:00 145.822/145.860
Oscar 11 28 Mar 22:46:46 22:50:31 28° 265° (W) 22:54:14 145.826/435.025
FUNcube-1 28 Mar 22:55:24 22:59:22 43° 262° (W) 23:03:20 145.935
UWE-3 28 Mar 22:57:52 23:01:37 32° 264° (W) 23:05:20 435.000/436.395/437.385
CUBEBUG 2 28 Mar 23:01:39 23:05:04 24° 265° (W) 23:08:26 437.445
VELOX 1 28 Mar 23:01:53 23:06:18 70° 75° (ENE) 23:10:44 145.980
CUBEBUG 1 28 Mar 23:04:51 23:08:46 32° 71° (ENE) 23:12:44 437.445
POPSAT HIP 1 28 Mar 23:05:11 23:06:47 12° 90° (E) 23:08:38 437.405
AISAT 28 Mar 23:06:11 23:10:38 81° 76° (ENE) 23:15:05 437.250
UNISAT 6 28 Mar 23:07:45 23:11:44 29° 96° (E) 23:15:50 437.425
ZACube-1 28 Mar 23:08:20 23:12:01 30° 264° (W) 23:15:41 437.345
NANOSAT C BR1 28 Mar 23:15:18 23:17:54 16° 92° (E) 23:20:38 145.865
TIGRISAT 28 Mar 23:18:12 23:22:26 37° 97° (E) 23:26:45 435.000
POLYITAN 1 28 Mar 23:18:33 23:21:27 18° 93° (E) 23:24:29 437.675
SPROUT 28 Mar 23:19:41 23:21:08 12° 65° (ENE) 23:22:48 437.525
50 SAT 28 Mar 23:24:49 23:28:40 58° 260° (W) 23:32:34 437.505
ESTCUBE 1 28 Mar 23:32:56 23:37:28 77° 76° (ENE) 23:42:02 437.505/2401.250
ANTELSAT 28 Mar 23:47:50 23:52:26 82° 103° (ESE) 23:57:06 437.575/2403.000
UKube-1 28 Mar 23:54:42 23:56:57 13° 269° (W) 23:59:01 .
QB50P1 28 Mar 23:55:24 23:59:30 48° 99° (E) 00:03:36 145.935-145.965
DUCHIFAT 1 28 Mar 23:57:42 00:01:48 50° 99° (E) 00:05:55 145.980
ISS 28 Mar 23:59:07 00:02:17 48° 325° (NW) 00:05:27 145.825
HUMSAT D 29 Mar 00:07:14 00:09:23 13° 270° (W) 00:11:20 437.325/437.525
QB50P2 29 Mar 00:09:51 00:14:06 74° 102° (ESE) 00:18:21 145.880/145.840
YUBILEINY 29 Mar 00:16:05 00:23:06 27° 67° (ENE) 00:30:20 435.215
PCSat 29 Mar 00:16:48 00:22:01 46° 56° (NE) 00:27:14 145.827
POPSAT HIP 1 29 Mar 00:38:57 00:43:03 51° 286° (WNW) 00:47:09 437.405
CUBEBUG 1 29 Mar 00:41:49 00:45:13 21° 267° (W) 00:48:31 437.445
BUGSAT 1 29 Mar 00:42:07 00:46:08 65° 285° (WNW) 00:50:07 437.445
UNISAT 6 29 Mar 00:44:37 00:48:26 26° 290° (WNW) 00:52:13 437.425
TISAT 1 29 Mar 00:44:47 00:49:01 87° 256° (WSW) 00:53:15 437.305
NANOSAT C BR1 29 Mar 00:50:01 00:53:57 38° 288° (WNW) 00:57:51 145.865
SPROUT 29 Mar 00:52:32 00:56:47 61° 259° (W) 01:01:02 437.525
POLYITAN 1 29 Mar 00:53:39 00:57:31 34° 288° (WNW) 01:01:21 437.675
RS-15 29 Mar 00:54:02 01:00:49 17° 5° (N) 01:07:50 29.354- 29.394
TIGRISAT 29 Mar 00:55:32 00:58:59 21° 291° (WNW) 01:02:21 435.000
SWISSCUBE 29 Mar 01:11:15 01:15:24 31° 70° (ENE) 01:19:39 437.505
BEESAT 29 Mar 01:14:22 01:18:30 30° 69° (ENE) 01:22:43 436.000
ANTELSAT 29 Mar 01:28:00 01:28:41 10° 296° (WNW) 01:29:06 437.575/2403.000
QB50P1 29 Mar 01:32:43 01:35:02 14° 294° (WNW) 01:37:09 145.935-145.965
DUCHIFAT 1 29 Mar 01:35:07 01:37:17 14° 294° (WNW) 01:39:16 145.980
ISS 29 Mar 01:37:48 01:39:19 12° 344° (NNW) 01:40:48 145.825
ITUPSAT 1 29 Mar 02:00:02 02:04:51 88° 77° (ENE) 02:09:43 437.325
PCSat 29 Mar 02:00:55 02:05:10 23° 252° (WSW) 02:09:15 145.827
STARS 29 Mar 02:09:21 02:11:06 13° 65° (ENE) 02:13:04 437.465
YUBILEINY 29 Mar 02:11:59 02:20:41 65° 268° (W) 02:29:17 435.215
Oscar 19 29 Mar 02:20:19 02:25:20 50° 99° (E) 02:30:22 437.125/150
Gurwin Techsat 1B 29 Mar 02:31:48 02:34:52 16° 90° (E) 02:38:10 435.225
SWISSCUBE 29 Mar 02:49:13 02:53:18 26° 265° (W) 02:57:17 437.505
BEESAT 29 Mar 02:52:17 02:56:21 27° 265° (W) 03:00:22 436.000
RS-15 29 Mar 03:08:07 03:18:08 35° 38° (NE) 03:28:45 29.354- 29.394
KKS-1 29 Mar 03:09:17 03:13:44 89° 289° (WNW) 03:18:12 437.445
SO-50 29 Mar 03:23:19 03:27:07 22° 45° (NE) 03:31:00 436.795
ITAMSAT 1 29 Mar 03:24:24 03:29:33 64° 101° (ESE) 03:34:41 435.822/435.867
HORYU 2 29 Mar 03:39:32 03:41:58 15° 91° (E) 03:44:37 437.375
STARS 29 Mar 03:42:49 03:47:08 59° 259° (W) 03:51:29 437.465
Oscar 19 29 Mar 04:00:39 04:04:22 20° 294° (WNW) 04:07:55 437.125/150
Gurwin Techsat 1B 29 Mar 04:10:05 04:15:20 59° 287° (WNW) 04:20:32 435.225
AUBIESAT-1 29 Mar 04:14:32 04:16:08 12° 58° (ENE) 04:17:57 437.475
M-CUBED/EXP-1 PRIME 29 Mar 04:36:42 04:39:52 23° 63° (ENE) 04:43:20 437.505
MOZHAYETS 4 29 Mar 04:40:20 04:44:43 45° 73° (ENE) 04:49:10
AIST 1 29 Mar 04:49:14 04:53:39 89° 118° (ESE) 04:58:05
AO-7 29 Mar 04:49:59 04:57:54 48° 100° (E) 05:05:52 29.400- 29.500
ISS 29 Mar 04:51:52 04:54:19 19° 24° (NNE) 04:56:47 145.825
O/OREOS (USA 219) 29 Mar 04:51:53 04:56:28 78° 292° (WNW) 05:01:06 437.305
JAS-2 29 Mar 05:00:19 05:07:52 54° 97° (E) 05:14:49 435.910
SO-50 29 Mar 05:03:11 05:08:01 52° 243° (WSW) 05:12:46 436.795
ITAMSAT 1 29 Mar 05:05:29 05:08:35 16° 297° (WNW) 05:11:28 435.822/435.867
HORYU 2 29 Mar 05:14:36 05:18:58 48° 287° (WNW) 05:23:17 437.375
RS-15 29 Mar 05:20:20 05:31:52 79° 242° (WSW) 05:43:54 29.354- 29.394
VERMONT LUNAR 29 Mar 05:43:16 05:46:13 30° 153° (SSE) 05:49:13 437.305
AUBIESAT-1 29 Mar 05:46:28 05:50:22 63° 255° (WSW) 05:54:40 437.475
PRISM 29 Mar 05:52:23 05:54:50 16° 67° (ENE) 05:57:27 437.425
M-CUBED/EXP-1 PRIME 29 Mar 06:11:11 06:14:39 28° 261° (W) 06:18:20 437.505
MOZHAYETS 4 29 Mar 06:19:15 06:22:15 16° 269° (W) 06:25:05
PHONESAT 2.4 29 Mar 06:19:58 06:22:55 25° 151° (SSE) 06:25:54 2401.200-2431.200
CUBESAT XI-V 29 Mar 06:26:00 06:30:30 46° 73° (ENE) 06:35:01 437.345
ISS 29 Mar 06:27:47 06:30:58 59° 222° (SW) 06:34:08 145.825
GONETS M04 29 Mar 06:29:10 06:37:21 42° 73° (ENE) 06:45:39
AO-7 29 Mar 06:43:05 06:50:34 38° 298° (WNW) 06:57:55 29.400- 29.500
JAS-2 29 Mar 06:45:51 06:52:31 31° 296° (WNW) 06:58:37 435.910
STRAND 1 29 Mar 07:02:30 07:07:33 62° 74° (ENE) 07:12:40 437.568
VERMONT LUNAR 29 Mar 07:20:25 07:23:46 82° 347° (NNW) 07:27:08 437.305
CUTE-I 29 Mar 07:21:25 07:26:43 65° 101° (E) 07:31:59 437.470
Cubesat XI-IV 29 Mar 07:21:29 07:26:48 65° 101° (E) 07:32:05 437.490
PRISM 29 Mar 07:25:59 07:30:01 43° 262° (W) 07:34:03 437.425
RS-15 29 Mar 07:35:45 07:42:57 17° 259° (WSW) 07:49:20 29.354- 29.394
CUSAT 1 29 Mar 07:48:40 07:52:32 31° 78° (ENE) 07:57:33 437.405
PHONESAT 2.4 29 Mar 07:57:30 08:01:02 88° 173° (S) 08:04:35 2401.200-2431.200
CUBESAT XI-V 29 Mar 08:05:06 08:08:14 17° 269° (W) 08:11:10 437.345
GONETS M04 29 Mar 08:26:06 08:34:14 41° 272° (W) 08:42:12
DANDE 29 Mar 08:35:33 08:39:35 71° 81° (E) 08:45:04 436.750
BRITE-PL 29 Mar 08:42:17 08:45:22 20° 94° (E) 08:48:40 437.365/2234.400
STRAND 1 29 Mar 08:44:24 08:47:17 14° 270° (W) 08:49:54 437.568
HO-68 29 Mar 08:56:44 09:02:28 26° 93° (E) 09:08:23 435.675
VERMONT LUNAR 29 Mar 08:58:16 09:01:36 67° 4° (N) 09:04:58 437.305
CUTE-I 29 Mar 09:03:02 09:06:20 16° 297° (WNW) 09:09:24 437.470
Cubesat XI-IV 29 Mar 09:03:09 09:06:25 16° 297° (WNW) 09:09:27 437.490
COMPASS 1 29 Mar 09:04:41 09:06:25 13° 89° (E) 09:08:24 437.405
DOVE 4 29 Mar 09:20:37 09:24:08 24° 95° (E) 09:27:51 437.250
GOMX 1 29 Mar 09:29:55 09:34:01 45° 99° (E) 09:38:21 467.674
CUSAT 1 29 Mar 09:31:35 09:35:18 24° 264° (W) 09:39:44 437.405
CANX-2 29 Mar 09:31:49 09:35:57 43° 98° (E) 09:40:05 2200.000
BEESAT 3 29 Mar 09:33:21 09:34:14 11° 109° (ESE) 09:35:22 437.485
PHONESAT 2.4 29 Mar 09:35:59 09:39:30 66° 4° (N) 09:43:02 2401.200-2431.200
CUTE 1.7 + AOD 2 29 Mar 09:45:43 09:49:58 58° 99° (E) 09:54:13 437.475
DELFI C3 29 Mar 09:54:21 09:56:20 14° 90° (E) 09:58:33 145.870
UNISAT 6 29 Mar 10:06:28 10:09:40 22° 69° (ENE) 10:13:01 437.425
NANOSAT C BR1 29 Mar 10:08:34 10:09:48 11° 65° (ENE) 10:11:16 145.865
AAUSAT CUBESAT 2 29 Mar 10:11:20 10:15:33 67° 101° (E) 10:19:45 437.432
POLYITAN 1 29 Mar 10:11:57 10:13:45 13° 66° (ENE) 10:15:45 437.675
SEEDS 29 Mar 10:15:22 10:19:40 77° 284° (WNW) 10:23:56 437.485
TIGRISAT 29 Mar 10:16:29 10:20:00 27° 70° (ENE) 10:23:40 435.000
DX 1 29 Mar 10:16:54 10:18:35 12° 90° (E) 10:20:31 434.975-435.025
BRITE-PL 29 Mar 10:20:18 10:24:01 30° 288° (WNW) 10:27:49 437.365/2234.400
BEESAT 2 29 Mar 10:30:37 10:34:28 41° 116° (ESE) 10:38:25 435.950
Oscar 11 29 Mar 10:34:38 10:38:56 55° 100° (E) 10:43:13 145.826/435.025
VERMONT LUNAR 29 Mar 10:36:02 10:39:19 51° 201° (SSW) 10:42:36 437.305
COMPASS 1 29 Mar 10:38:22 10:42:30 50° 286° (WNW) 10:46:36 437.405
CINEMA 3 29 Mar 10:38:52 10:43:19 88° 283° (WNW) 10:47:56 145.822/145.860
HO-68 29 Mar 10:43:35 10:50:37 57° 290° (WNW) 10:57:35 435.675
FUNcube-1 29 Mar 10:44:42 10:48:45 36° 97° (E) 10:52:54 145.935
ANTELSAT 29 Mar 10:45:54 10:50:05 60° 74° (ENE) 10:54:21 437.575/2403.000
QB50P1 29 Mar 10:47:17 10:50:59 31° 71° (ENE) 10:54:44 145.935-145.965
UWE-3 29 Mar 10:48:08 10:52:26 51° 99° (E) 10:56:51 435.000/436.395/437.385
DUCHIFAT 1 29 Mar 10:49:16 10:52:59 32° 71° (ENE) 10:56:45 145.980
CUBEBUG 2 29 Mar 10:52:33 10:56:58 70° 102° (ESE) 11:01:31 437.445
VELOX 1 29 Mar 10:55:21 10:57:40 14° 91° (E) 11:00:10 145.980
ZACube-1 29 Mar 10:57:19 11:01:36 51° 99° (E) 11:06:00 437.345
DOVE 4 29 Mar 10:58:11 11:01:56 28° 288° (WNW) 11:05:45 437.250
AISAT 29 Mar 10:59:32 11:02:18 17° 92° (E) 11:05:14 437.250
QB50P2 29 Mar 11:01:38 11:05:40 46° 73° (ENE) 11:09:45 145.880/145.840
50 SAT 29 Mar 11:04:43 11:07:31 18° 93° (E) 11:10:27 437.505
BEESAT 3 29 Mar 11:07:46 11:11:49 62° 303° (WNW) 11:15:56 437.485
CANX-2 29 Mar 11:08:53 11:11:34 16° 293° (WNW) 11:14:06 2200.000
GOMX 1 29 Mar 11:09:22 11:11:55 15° 292° (WNW) 11:14:23 467.674
PHONESAT 2.4 29 Mar 11:14:23 11:17:53 62° 200° (SSW) 11:21:24 2401.200-2431.200
CUTE 1.7 + AOD 2 29 Mar 11:23:34 11:25:28 12° 294° (WNW) 11:27:11 437.475
DELFI C3 29 Mar 11:27:53 11:31:48 43° 287° (WNW) 11:35:40 145.870
ESTCUBE 1 29 Mar 11:28:09 11:31:06 18° 92° (E) 11:34:12 437.505/2401.250
POPSAT HIP 1 29 Mar 11:30:17 11:34:30 82° 256° (WSW) 11:38:44 437.405
BUGSAT 1 29 Mar 11:30:42 11:34:51 72° 77° (ENE) 11:38:59 437.445
AIST 2 29 Mar 11:40:52 11:45:07 84° 119° (ESE) 11:49:26 435.215
UKube-1 29 Mar 11:41:00 11:45:20 74° 284° (WNW) 11:49:37 .
NANOSAT C BR1 29 Mar 11:41:03 11:45:13 61° 260° (W) 11:49:24 145.865
UNISAT 6 29 Mar 11:42:34 11:46:21 30° 264° (W) 11:50:07 437.425
POLYITAN 1 29 Mar 11:45:10 11:49:18 53° 260° (W) 11:53:26 437.675
AAUSAT CUBESAT 2 29 Mar 11:49:44 11:50:42 10° 295° (WNW) 11:51:25 437.432
HUMSAT D 29 Mar 11:50:05 11:54:21 79° 284° (WNW) 11:58:39 437.325/437.525
DX 1 29 Mar 11:51:00 11:55:15 53° 286° (WNW) 11:59:27 434.975-435.025
TIGRISAT 29 Mar 11:53:19 11:56:47 23° 266° (W) 12:00:13 435.000
BEESAT 2 29 Mar 12:09:45 12:12:50 19° 314° (NW) 12:15:52 435.950
Oscar 11 29 Mar 12:12:33 12:14:42 13° 294° (WNW) 12:16:40 145.826/435.025
VERMONT LUNAR 29 Mar 12:15:24 12:16:35 11° 215° (SW) 12:17:41 437.305
FUNcube-1 29 Mar 12:21:41 12:24:54 20° 291° (WNW) 12:28:02 145.935
QB50P1 29 Mar 12:23:45 12:26:57 20° 267° (W) 12:30:01 145.935-145.965
DUCHIFAT 1 29 Mar 12:25:48 12:28:55 19° 267° (W) 12:31:55 145.980
UWE-3 29 Mar 12:26:05 12:28:38 15° 293° (WNW) 12:31:03 435.000/436.395/437.385
ANTELSAT 29 Mar 12:26:34 12:27:25 10° 272° (W) 12:27:58 437.575/2403.000
VELOX 1 29 Mar 12:30:18 12:34:33 47° 287° (WNW) 12:38:46 145.980
CUBEBUG 1 29 Mar 12:30:44 12:35:05 79° 104° (ESE) 12:39:24 437.445
CUBEBUG 2 29 Mar 12:31:50 12:33:13 11° 295° (WNW) 12:34:21 437.445
TISAT 1 29 Mar 12:32:01 12:34:31 16° 92° (E) 12:37:11 437.305
AISAT 29 Mar 12:35:00 12:39:09 40° 288° (WNW) 12:43:15 437.250
ZACube-1 29 Mar 12:35:10 12:37:38 14° 293° (WNW) 12:39:56 437.345
HO-68 29 Mar 12:36:24 12:37:01 10° 308° (NW) 12:37:07 435.675
50 SAT 29 Mar 12:38:55 12:42:31 31° 288° (WNW) 12:46:05 437.505
QB50P2 29 Mar 12:39:43 12:41:54 13° 270° (W) 12:43:53 145.880/145.840
SPROUT 29 Mar 12:40:59 12:44:30 25° 95° (E) 12:48:04 437.525
PHONESAT 2.4 29 Mar 12:53:41 12:55:51 15° 213° (SSW) 12:57:56 2401.200-2431.200
ESTCUBE 1 29 Mar 13:03:58 13:08:13 40° 288° (WNW) 13:12:24 437.505/2401.250
ITAMSAT 1 29 Mar 13:06:31 13:07:28 11° 61° (ENE) 13:08:44 435.822/435.867
YUBILEINY 29 Mar 13:15:47 13:23:03 32° 85° (E) 13:30:35 435.215
AIST 2 29 Mar 13:22:25 13:24:22 12° 319° (NW) 13:26:10 435.215
O/OREOS (USA 219) 29 Mar 13:25:09 13:27:59 16° 55° (NE) 13:30:57 437.305
Oscar 19 29 Mar 13:35:55 13:40:57 64° 74° (ENE) 13:46:03 437.125/150
Gurwin Techsat 1B 29 Mar 13:51:26 13:55:31 24° 67° (ENE) 13:59:44 435.225
AO-7 29 Mar 14:01:29 14:04:11 12° 48° (NE) 14:07:23 29.400- 29.500
ITUPSAT 1 29 Mar 14:02:38 14:06:31 25° 94° (E) 14:10:28 437.325
TISAT 1 29 Mar 14:06:36 14:10:32 39° 288° (WNW) 14:14:25 437.305
SPROUT 29 Mar 14:16:57 14:20:34 26° 290° (WNW) 14:24:05 437.525
HORYU 2 29 Mar 14:37:52 14:39:40 13° 64° (ENE) 14:41:42 437.375
ITAMSAT 1 29 Mar 14:41:03 14:46:16 86° 77° (ENE) 14:51:32 435.822/435.867
SWISSCUBE 29 Mar 14:49:53 14:54:42 87° 103° (ESE) 14:59:29 437.505
BEESAT 29 Mar 14:52:52 14:57:41 86° 105° (ESE) 15:02:28 436.000
PCSat 29 Mar 14:57:02 15:02:16 55° 114° (ESE) 15:07:36 145.827
AIST 1 29 Mar 14:58:45 15:01:47 19° 72° (ENE) 15:04:56
KKS-1 29 Mar 15:02:37 15:05:45 19° 93° (E) 15:09:01 437.445
O/OREOS (USA 219) 29 Mar 15:03:22 15:07:46 49° 253° (WSW) 15:12:06 437.305
YUBILEINY 29 Mar 15:10:56 15:19:31 54° 284° (WNW) 15:28:07 435.215
JAS-2 29 Mar 15:11:33 15:16:38 23° 60° (ENE) 15:22:19 435.910
Oscar 19 29 Mar 15:18:08 15:20:51 14° 271° (W) 15:23:18 437.125/150
Gurwin Techsat 1B 29 Mar 15:30:14 15:35:16 42° 262° (W) 15:40:18 435.225
JUGNU 29 Mar 15:30:22 15:32:00 11° 176° (S) 15:33:40 437.505
STARS 29 Mar 15:34:14 15:37:57 27° 95° (E) 15:41:43 437.465
ITUPSAT 1 29 Mar 15:40:11 15:44:28 32° 290° (WNW) 15:48:40 437.325
AO-7 29 Mar 15:47:24 15:55:27 58° 67° (ENE) 16:03:33 29.400- 29.500
HORYU 2 29 Mar 16:11:29 16:15:52 61° 259° (W) 16:20:17 437.375
ITAMSAT 1 29 Mar 16:26:03 16:26:34 10° 273° (W) 16:26:41 435.822/435.867
SWISSCUBE 29 Mar 16:31:24 16:31:56 10° 298° (WNW) 16:32:10 437.505
BEESAT 29 Mar 16:34:07 16:34:54 10° 298° (WNW) 16:35:24 436.000
AIST 1 29 Mar 16:35:44 16:39:34 31° 269° (W) 16:43:20
KKS-1 29 Mar 16:38:27 16:42:33 36° 289° (WNW) 16:46:36 437.445
MOZHAYETS 4 29 Mar 16:38:54 16:40:31 12° 88° (E) 16:42:25
PCSat 29 Mar 16:41:51 16:46:05 22° 312° (NW) 16:50:15 145.827
JAS-2 29 Mar 16:54:06 17:00:54 73° 259° (WSW) 17:08:31 435.910
CUTE-I 29 Mar 17:06:09 17:07:59 12° 61° (ENE) 17:10:07 437.470
Cubesat XI-IV 29 Mar 17:06:14 17:08:11 12° 61° (ENE) 17:10:26 437.490
STARS 29 Mar 17:10:41 17:14:22 26° 291° (WNW) 17:17:57 437.465
JUGNU 29 Mar 17:19:00 17:20:08 10° 186° (S) 17:21:13 437.505
AUBIESAT-1 29 Mar 17:30:44 17:32:46 13° 93° (E) 17:35:03 437.475
RS-15 29 Mar 17:36:19 17:41:41 16° 101° (E) 17:47:57 29.354- 29.394
AO-7 29 Mar 17:41:35 17:48:43 30° 265° (W) 17:55:37 29.400- 29.500
M-CUBED/EXP-1 PRIME 29 Mar 17:53:41 17:57:42 26° 98° (E) 18:01:43 437.505
MOZHAYETS 4 29 Mar 18:13:38 18:18:16 62° 285° (WNW) 18:22:50
SRMSAT 29 Mar 18:17:48 18:19:33 11° 183° (S) 18:21:16 437.500
CUBESAT XI-V 29 Mar 18:26:04 18:27:50 12° 88° (E) 18:29:53 437.345
CUTE-I 29 Mar 18:42:02 18:47:24 88° 251° (WSW) 18:52:49 437.470
Cubesat XI-IV 29 Mar 18:42:15 18:47:38 87° 253° (WSW) 18:53:03 437.490
JAS-2 29 Mar 18:45:41 18:47:38 11° 280° (W) 18:48:56 435.910
BEESAT 2 29 Mar 18:51:43 18:54:47 20° 47° (NE) 18:57:55 435.950
AUBIESAT-1 29 Mar 19:03:17 19:08:06 67° 290° (WNW) 19:12:46 437.475
PRISM 29 Mar 19:10:06 19:13:40 27° 96° (E) 19:17:15 437.425
STRAND 1 29 Mar 19:15:04 19:19:00 23° 93° (E) 19:23:04 437.568
SO-50 29 Mar 19:16:08 19:20:42 70° 119° (ESE) 19:25:28 436.795
HO-68 29 Mar 19:25:43 19:30:09 19° 58° (ENE) 19:34:56 435.675
BEESAT 3 29 Mar 19:28:00 19:32:01 51° 55° (NE) 19:35:59 437.485
M-CUBED/EXP-1 PRIME 29 Mar 19:28:12 19:32:37 34° 294° (WNW) 19:36:53 437.505
GONETS M04 29 Mar 19:28:29 19:36:40 50° 90° (E) 19:45:00
RS-15 29 Mar 19:41:39 19:52:31 80° 118° (ESE) 20:03:35 29.354- 29.394
BRITE-PL 29 Mar 19:52:19 19:55:54 23° 71° (ENE) 19:59:25 437.365/2234.400
CUBESAT XI-V 29 Mar 20:01:12 20:05:47 59° 285° (WNW) 20:10:18 437.345
AIST 2 29 Mar 20:04:06 20:08:03 37° 53° (NE) 20:11:58 435.215
CANX-2 29 Mar 20:24:00 20:27:33 27° 71° (ENE) 20:31:11 2200.000
DOVE 4 29 Mar 20:26:02 20:29:13 21° 70° (ENE) 20:32:26 437.250
BEESAT 2 29 Mar 20:29:15 20:33:07 39° 244° (WSW) 20:36:54 435.950
